Chapel Hill, NC

2:53 AM EDT on August 27, 2016 (GMT -0400)
Williams

Weather History for KIGX - June, 2013

Change the Weather History Date:

Sunday, June 16, 2013

  Actual Average Record
Temperature  
Mean Temperature 74 °F -  
Max Temperature 86 °F 86 °F 98 °F (2015)
Min Temperature 64 °F 63 °F 50 °F (1955)
Cooling Degree Days 9    
Growing Degree Days 24 (Base 50)    
Moisture  
Dew Point 62 °F    
Average Humidity 64    
Maximum Humidity 76    
Minimum Humidity 51    
Precipitation  
Precipitation 0.00 in - - ()
Sea Level Pressure  
Sea Level Pressure 30.06 in    
Wind  
Wind Speed 5 mph (WSW)    
Max Wind Speed 8 mph    
Max Gust Speed -    
Visibility 10 miles    
Events      
Averages and records for this station are not official NWS values.
T = Trace of Precipitation, MM = Missing Value Source: NWS Daily Summary

Daily Weather History Graph

Daily Weather History Graph

Search for Another Location

Airport or City:

Trip Planner

Search our weather history database for the weather conditions in past years. The results will help you decide how hot, cold, wet, or windy it might be!

Date:

Astronomy

Jun. 16, 2013 Rise Set
Actual Time 5:59 AM EDT 8:34 PM EDT
Civil Twilight 5:29 AM EDT 9:05 PM EDT
Nautical Twilight 4:51 AM EDT 9:42 PM EDT
Astronomical Twilight 4:09 AM EDT 10:24 PM EDT
Moon 1:20 PM EDT (6/16) 12:51 AM EDT (6/16)
Length of Visible Light 15h 36m
Length of Day
14h 35m
Waxing Crescent, 49% of the Moon is Illuminated
Jun 16
Waxing Crescent
Jun 16
First Quarter
Jun 23
Full
Jun 30
Last Quarter
Jul 8
New

Hourly Weather History & Observations

Time (EDT) Temp. Heat Index Dew Point Humidity Pressure Visibility Wind Dir Wind Speed Gust Speed Precip Events Conditions
12:56 AM 70.0 °F - 60.1 °F 71% 30.09 in 10.0 mi Variable 3.5 mph - N/A   Clear
1:56 AM 69.1 °F - 57.9 °F 68% 30.09 in 10.0 mi North - - N/A   Clear
2:56 AM 68.0 °F - 55.9 °F 65% 30.08 in 10.0 mi Variable 4.6 mph - N/A   Clear
3:56 AM 66.9 °F - 55.9 °F 68% 30.08 in 10.0 mi Variable 4.6 mph - N/A   Clear
4:56 AM 66.0 °F - 55.9 °F 70% 30.09 in 10.0 mi Variable 4.6 mph - N/A   Clear
5:56 AM 64.9 °F - 55.9 °F 73% 30.10 in 10.0 mi Variable 3.5 mph - N/A   Clear
6:56 AM 64.9 °F - 57.0 °F 75% 30.11 in 10.0 mi Variable 3.5 mph - N/A   Mostly Cloudy
7:56 AM 68.0 °F - 57.9 °F 70% 30.13 in 10.0 mi Variable 4.6 mph - N/A   Partly Cloudy
8:56 AM 72.0 °F - 60.1 °F 66% 30.12 in 10.0 mi WSW 8.1 mph - N/A   Partly Cloudy
9:56 AM 75.0 °F - 63.0 °F 66% 30.12 in 10.0 mi Variable 5.8 mph - N/A   Scattered Clouds
10:56 AM 79.0 °F - 64.0 °F 60% 30.09 in 10.0 mi Variable 5.8 mph - N/A   Clear
11:56 AM 82.0 °F 83.4 °F 64.0 °F 54% 30.08 in 10.0 mi WSW 8.1 mph - N/A   Clear
12:56 PM 82.9 °F 84.6 °F 64.9 °F 54% 30.06 in 10.0 mi Variable 6.9 mph - N/A   Partly Cloudy
1:56 PM 84.0 °F 86.3 °F 66.0 °F 55% 30.05 in 10.0 mi Variable 6.9 mph - N/A   Partly Cloudy
2:56 PM 84.0 °F 86.3 °F 66.0 °F 55% 30.04 in 10.0 mi Variable 6.9 mph - N/A   Scattered Clouds
3:56 PM 84.9 °F 86.6 °F 64.9 °F 51% 30.03 in 10.0 mi SW 8.1 mph - N/A   Partly Cloudy
4:56 PM 84.0 °F 85.8 °F 64.9 °F 53% 30.02 in 10.0 mi Variable 6.9 mph - N/A   Scattered Clouds
5:56 PM 84.0 °F 85.8 °F 64.9 °F 53% 30.01 in 10.0 mi Variable 6.9 mph - N/A   Clear
6:56 PM 82.9 °F 84.6 °F 64.9 °F 54% 30.01 in 10.0 mi Variable 4.6 mph - N/A   Clear
7:56 PM 79.0 °F - 66.9 °F 66% 30.01 in 10.0 mi Calm Calm - N/A   Clear
8:56 PM 75.9 °F - 66.9 °F 74% 30.01 in 10.0 mi Calm Calm - N/A   Clear
9:56 PM 75.9 °F - 66.0 °F 71% 30.02 in 10.0 mi Calm Calm - N/A   Clear
10:56 PM 73.9 °F - 66.0 °F 76% 30.03 in 10.0 mi Calm Calm - N/A   Clear
11:56 PM 75.9 °F - 64.9 °F 69% 30.03 in 10.0 mi Variable 4.6 mph - N/A   Clear